Вернуться в каталог

GEESAT 4-06

АктивенСвязьLEO
NORAD 65124·PAYLOAD·🇨🇳 China

Запущен Aug 8, 2025 с Yellow Sea Launch Area

Loading…

Ближайшие Пролёты (ближайшие 24 часа)

TLE

СвежийSource: Space-Track

Эпоха: Sep 14, 2026, 21:26 UTC

1 65124U 25170F   26257.89362884  .00001218  00000-0  17081-3 0  9995
2 65124  49.9835 117.9311 0018676  25.9088 334.2781 14.84257842 59750

Отслеживайте GEESAT 4-06 в реальном времени с AllMySat

Download on the App Store